Weather History for Lake Charles Regional, LA

Change the Weather History Date:

Friday, September 12, 2014

  Actual Average Record
Temperature  
Mean Temperature 83 °F 80 °F  
Max Temperature 90 °F 89 °F 100 °F (1911)
Min Temperature 75 °F 70 °F 50 °F (1940)
Degree Days  
Heating Degree Days 0 0  
Month to date heating degree days 0 0  
Since 1 July heating degree days 0 0  
Cooling Degree Days 18 15  
Month to date cooling degree days 218 191  
Year to date cooling degree days 2228 2320  
Growing Degree Days 32 (Base 50)    
Moisture  
Dew Point 75 °F    
Average Humidity 82    
Maximum Humidity 100    
Minimum Humidity 63    
Precipitation  
Precipitation 0.08 in 0.20 in 5.54 in (1973)
Month to date precipitation 2.90 2.32  
Year to date precipitation 54.97 40.54  
Snow  
Snow 0.00 in 0.00 in 0.00 in ()
Month to date snowfall 0.0 0.0  
Since 1 July snowfall 0.0 0.0  
Since 1 September snowfall 0.0 0.0  
Snow Depth 0.00 in    
Sea Level Pressure  
Sea Level Pressure 29.99 in    
Wind  
Wind Speed 6 mph (ENE)    
Max Wind Speed 17 mph    
Max Gust Speed 20 mph    
Visibility 9 miles    
Events Rain , Thunderstorm    
T = Trace of Precipitation, MM = Missing Value Source: NWS Daily Summary

Daily Weather History Graph

Daily Weather History Graph

Search for Another Location

Airport:

Trip Planner

Search our weather history database for the weather conditions in past years. The results will help you decide how hot, cold, wet, or windy it might be!

Date:

Astronomy

Sep. 12, 2014 Rise Set
Actual Time 6:55 AM CDT 7:21 PM CDT
Civil Twilight 6:31 AM CDT 7:45 PM CDT
Nautical Twilight 6:03 AM CDT 8:14 PM CDT
Astronomical Twilight 5:34 AM CDT 8:42 PM CDT
Moon 10:03 PM CDT (9/12) 10:41 AM CDT (9/12)
Length of Visible Light 13h 14m
Length of Day
12h 26m
Waning Gibbous, 83% of the Moon is Illuminated
Sep 12
Waning Gibbous
Sep 15
Last Quarter
Sep 24
New
Oct 1
First Quarter
Oct 8
Full

Hourly Weather History & Observations

Time (CDT) Temp. Heat Index Dew Point Humidity Pressure Visibility Wind Dir Wind Speed Gust Speed Precip Events Conditions
12:53 AM 77.0 °F - 75.9 °F 96% 29.98 in 10.0 mi SE 4.6 mph - N/A   Clear
1:53 AM 77.0 °F - 75.9 °F 96% 29.98 in 9.0 mi Calm Calm - N/A   Clear
2:53 AM 77.0 °F - 75.9 °F 96% 29.98 in 10.0 mi NE 3.5 mph - N/A   Clear
3:53 AM 77.0 °F - 75.0 °F 94% 29.99 in 9.0 mi NE 5.8 mph - N/A   Clear
4:53 AM 77.0 °F - 75.0 °F 94% 29.99 in 10.0 mi ENE 4.6 mph - N/A   Clear
5:22 AM 77.0 °F - 75.0 °F 94% 29.96 in 9.0 mi Variable 3.5 mph - 0.00 in Rain Light Rain
5:32 AM 77.0 °F - 75.0 °F 94% 29.96 in 3.0 mi NE 6.9 mph - 0.05 in Rain Light Rain
5:53 AM 77.0 °F - 75.0 °F 94% 29.98 in 9.0 mi NE 6.9 mph - 0.05 in   Mostly Cloudy
6:53 AM 75.9 °F - 75.0 °F 97% 29.99 in 8.0 mi East 6.9 mph - N/A   Clear
7:53 AM 77.0 °F - 75.0 °F 94% 30.00 in 9.0 mi ENE 6.9 mph - N/A   Clear
8:53 AM 81.0 °F 87.3 °F 75.9 °F 85% 30.01 in 10.0 mi ENE 4.6 mph - N/A   Clear
9:53 AM 84.0 °F 93.7 °F 77.0 °F 79% 30.02 in 10.0 mi NE 5.8 mph - N/A   Clear
10:53 AM 86.0 °F 96.9 °F 77.0 °F 74% 30.02 in 10.0 mi ENE 8.1 mph - N/A   Mostly Cloudy
11:53 AM 89.1 °F 99.1 °F 75.0 °F 63% 30.00 in 10.0 mi ENE 10.4 mph - N/A   Partly Cloudy
12:36 PM 89.1 °F 99.1 °F 75.0 °F 63% 29.98 in 10.0 mi East 8.1 mph - N/A Thunderstorm Scattered Clouds
12:51 PM 87.8 °F 95.6 °F 73.4 °F 62% 29.97 in 10.0 mi East 9.2 mph - N/A   Scattered Clouds
12:53 PM 87.1 °F 95.4 °F 73.9 °F 65% 29.99 in 10.0 mi East 9.2 mph - N/A   Scattered Clouds
1:06 PM 87.1 °F 95.4 °F 73.9 °F 65% 29.97 in 10.0 mi ESE 10.4 mph - N/A Thunderstorm Mostly Cloudy
1:32 PM 79.0 °F - 75.0 °F 88% 29.97 in 2.5 mi South 8.1 mph - 0.02 in Rain Heavy Rain
1:39 PM 79.0 °F - 75.0 °F 88% 29.96 in 8.0 mi South 8.1 mph - 0.03 in Rain Light Rain
1:50 PM 78.8 °F - 75.2 °F 89% 29.97 in 10.0 mi SSW 8.1 mph - 0.03 in Thunderstorm Overcast
1:53 PM 80.1 °F 85.8 °F 77.0 °F 90% 29.99 in 10.0 mi SW 10.4 mph - 0.03 in Thunderstorm Overcast
2:14 PM 80.1 °F 85.8 °F 77.0 °F 90% 29.96 in 10.0 mi SW 6.9 mph - N/A   Scattered Clouds
2:53 PM 81.0 °F 87.9 °F 77.0 °F 88% 30.00 in 10.0 mi West 3.5 mph - N/A   Mostly Cloudy
3:53 PM 84.0 °F 91.9 °F 75.0 °F 74% 29.97 in 10.0 mi West 4.6 mph - N/A   Partly Cloudy
4:53 PM 84.0 °F 92.6 °F 75.9 °F 76% 29.99 in 10.0 mi Calm Calm - N/A   Scattered Clouds
5:53 PM 80.1 °F 84.5 °F 73.9 °F 81% 29.98 in 10.0 mi NE 3.5 mph - N/A   Clear
6:53 PM 80.1 °F 84.5 °F 73.9 °F 81% 29.99 in 10.0 mi North 6.9 mph - N/A   Partly Cloudy
7:53 PM 79.0 °F - 73.9 °F 84% 30.02 in 10.0 mi NNE 3.5 mph - N/A   Partly Cloudy
8:53 PM 77.0 °F - 73.0 °F 88% 30.04 in 10.0 mi NNE 9.2 mph - N/A   Clear
9:53 PM 75.9 °F - 73.0 °F 91% 30.05 in 10.0 mi NE 5.8 mph - N/A   Clear
10:53 PM 75.9 °F - 73.0 °F 91% 30.06 in 10.0 mi NE 3.5 mph - N/A   Mostly Cloudy
11:53 PM 75.9 °F - 73.0 °F 91% 30.06 in 10.0 mi NE 6.9 mph - N/A   Partly Cloudy